Time,TemperatureF,DewpointF,PressureIn,WindDirection,WindDirectionDegrees,WindSpeedMPH,WindSpeedGustMPH,Humidity,HourlyPrecipIn,Conditions,Clouds,dailyrainin,SolarRadiationWatts/m^2,SoftwareType,DateUTC
2013-01-17 00:00:00,40.0,14.6,30.25,ESE,108,8.0,8.0,35,0.00,,,0.00,0,WeatherCatV1.11B39,2013-01-17 07:00:00,
2013-01-17 00:05:00,41.3,15.1,30.25,ESE,108,8.0,8.0,34,0.00,,,0.00,0,WeatherCatV1.11B39,2013-01-17 07:05:00,
2013-01-17 00:10:00,41.3,15.1,30.24,ESE,108,8.0,8.0,34,0.00,,,0.00,0,WeatherCatV1.11B39,2013-01-17 07:10:00,
2013-01-17 00:15:00,40.5,15.0,30.24,West,280,0.0,2.0,35,0.00,,,0.00,0,WeatherCatV1.11B39,2013-01-17 07:15:00,
2013-01-17 00:20:00,40.3,15.5,30.24,West,280,1.0,4.0,36,0.00,,,0.00,0,WeatherCatV1.11B39,2013-01-17 07:20:00,
2013-01-17 00:25:00,39.7,15.6,30.24,WNW,301,0.0,3.0,37,0.00,,,0.00,0,WeatherCatV1.11B39,2013-01-17 07:25:00,
2013-01-17 00:30:00,39.3,15.8,30.24,WNW,301,0.0,0.0,38,0.00,,,0.00,0,WeatherCatV1.11B39,2013-01-17 07:30:00,
2013-01-17 00:35:00,39.3,15.8,30.24,WNW,286,2.0,4.0,38,0.00,,,0.00,0,WeatherCatV1.11B39,2013-01-17 07:35:00,
2013-01-17 00:40:00,39.3,15.8,30.23,WNW,286,0.0,2.0,38,0.00,,,0.00,0,WeatherCatV1.11B39,2013-01-17 07:40:00,
2013-01-17 00:45:00,38.6,15.2,30.23,SW,236,2.0,5.0,38,0.00,,,0.00,0,WeatherCatV1.11B39,2013-01-17 07:45:00,
2013-01-17 00:50:00,39.0,15.6,30.24,WSW,242,2.0,5.0,38,0.00,,,0.00,0,WeatherCatV1.11B39,2013-01-17 07:50:00,
2013-01-17 00:55:00,40.0,15.9,30.23,WSW,257,5.0,5.0,37,0.00,,,0.00,0,WeatherCatV1.11B39,2013-01-17 07:55:00,
2013-01-17 01:00:00,40.3,16.1,30.23,NW,310,3.0,4.0,37,0.00,,,0.00,0,WeatherCatV1.11B39,2013-01-17 08:00:00,
2013-01-17 01:05:00,40.3,16.1,30.23,NW,311,3.0,9.0,37,0.00,,,0.00,0,WeatherCatV1.11B39,2013-01-17 08:05:00,
2013-01-17 01:10:00,40.9,16.0,30.24,NW,310,2.0,3.0,36,0.00,,,0.00,0,WeatherCatV1.11B39,2013-01-17 08:10:00,
2013-01-17 01:15:00,41.0,15.5,30.24,WNW,292,2.0,4.0,35,0.00,,,0.00,0,WeatherCatV1.11B39,2013-01-17 08:15:00,
2013-01-17 01:20:00,40.5,15.7,30.24,WNW,292,1.0,3.0,36,0.00,,,0.00,0,WeatherCatV1.11B39,2013-01-17 08:20:00,
2013-01-17 01:25:00,39.6,16.1,30.24,NW,309,4.0,4.0,38,0.00,,,0.00,0,WeatherCatV1.11B39,2013-01-17 08:25:00,
2013-01-17 01:30:00,39.0,15.6,30.24,SSW,213,3.0,3.0,38,0.00,,,0.00,0,WeatherCatV1.11B39,2013-01-17 08:30:00,
2013-01-17 01:35:00,39.2,15.1,30.24,WNW,295,5.0,6.0,37,0.00,,,0.00,0,WeatherCatV1.11B39,2013-01-17 08:35:00,
2013-01-17 01:40:00,39.6,14.9,30.23,WNW,289,4.0,4.0,36,0.00,,,0.00,0,WeatherCatV1.11B39,2013-01-17 08:40:00,
2013-01-17 01:45:00,39.9,14.5,30.24,WNW,290,0.0,3.0,35,0.00,,,0.00,0,WeatherCatV1.11B39,2013-01-17 08:45:00,
2013-01-17 01:50:00,40.0,14.6,30.24,West,272,0.0,3.0,35,0.00,,,0.00,0,WeatherCatV1.11B39,2013-01-17 08:50:00,
2013-01-17 01:55:00,39.5,14.8,30.24,West,271,2.0,5.0,36,0.00,,,0.00,0,WeatherCatV1.11B39,2013-01-17 08:55:00,
2013-01-17 02:00:00,38.7,14.7,30.24,WNW,293,1.0,3.0,37,0.00,,,0.00,0,WeatherCatV1.11B39,2013-01-17 09:00:00,
2013-01-17 02:05:00,38.1,14.8,30.24,WNW,293,3.0,3.0,38,0.00,,,0.00,0,WeatherCatV1.11B39,2013-01-17 09:05:00,
2013-01-17 02:10:00,37.8,15.1,30.24,WNW,293,1.0,2.0,39,0.00,,,0.00,0,WeatherCatV1.11B39,2013-01-17 09:10:00,
2013-01-17 02:15:00,37.4,15.3,30.23,WNW,293,4.0,4.0,40,0.00,,,0.00,0,WeatherCatV1.11B39,2013-01-17 09:15:00,
2013-01-17 02:20:00,37.0,14.9,30.23,NE,44,3.0,3.0,40,0.00,,,0.00,0,WeatherCatV1.11B39,2013-01-17 09:20:00,
2013-01-17 02:25:00,37.0,14.9,30.23,NE,43,1.0,1.0,40,0.00,,,0.00,0,WeatherCatV1.11B39,2013-01-17 09:25:00,
2013-01-17 02:30:00,36.8,15.3,30.23,NNW,343,0.0,4.0,41,0.00,,,0.00,0,WeatherCatV1.11B39,2013-01-17 09:30:00,
2013-01-17 02:35:00,36.3,14.9,30.23,NNW,343,0.0,0.0,41,0.00,,,0.00,0,WeatherCatV1.11B39,2013-01-17 09:35:00,
2013-01-17 02:40:00,36.2,15.3,30.23,WNW,298,1.0,2.0,42,0.00,,,0.00,0,WeatherCatV1.11B39,2013-01-17 09:40:00,
2013-01-17 02:45:00,37.3,14.6,30.23,WNW,288,2.0,6.0,39,0.00,,,0.00,0,WeatherCatV1.11B39,2013-01-17 09:45:00,
2013-01-17 02:50:00,37.5,14.8,30.23,WNW,286,0.0,4.0,39,0.00,,,0.00,0,WeatherCatV1.11B39,2013-01-17 09:50:00,
2013-01-17 02:55:00,37.3,15.2,30.22,WSW,244,0.0,4.0,40,0.00,,,0.00,0,WeatherCatV1.11B39,2013-01-17 09:55:00,
2013-01-17 03:00:00,38.6,15.2,30.22,West,278,2.0,7.0,38,0.00,,,0.00,0,WeatherCatV1.11B39,2013-01-17 10:00:00,
2013-01-17 03:05:00,39.2,15.1,30.23,West,270,4.0,5.0,37,0.00,,,0.00,0,WeatherCatV1.11B39,2013-01-17 10:05:00,
2013-01-17 03:10:00,39.8,15.0,30.23,West,265,3.0,6.0,36,0.00,,,0.00,0,WeatherCatV1.11B39,2013-01-17 10:10:00,
2013-01-17 03:15:00,39.7,15.0,30.23,NW,323,3.0,5.0,36,0.00,,,0.00,0,WeatherCatV1.11B39,2013-01-17 10:15:00,
2013-01-17 03:20:00,39.8,15.0,30.23,West,278,4.0,5.0,36,0.00,,,0.00,0,WeatherCatV1.11B39,2013-01-17 10:20:00,
2013-01-17 03:25:00,39.3,15.2,30.23,West,280,1.0,2.0,37,0.00,,,0.00,0,WeatherCatV1.11B39,2013-01-17 10:25:00,
2013-01-17 03:30:00,38.4,15.6,30.23,SE,132,3.0,4.0,39,0.00,,,0.00,0,WeatherCatV1.11B39,2013-01-17 10:30:00,
2013-01-17 03:35:00,38.6,15.8,30.23,SSE,153,2.0,3.0,39,0.00,,,0.00,0,WeatherCatV1.11B39,2013-01-17 10:35:00,
2013-01-17 03:40:00,38.0,15.9,30.23,SSW,211,2.0,4.0,40,0.00,,,0.00,0,WeatherCatV1.11B39,2013-01-17 10:40:00,
2013-01-17 03:45:00,37.7,15.6,30.22,WNW,282,3.0,4.0,40,0.00,,,0.00,0,WeatherCatV1.11B39,2013-01-17 10:45:00,
2013-01-17 03:50:00,37.6,15.5,30.23,NNW,329,1.0,4.0,40,0.00,,,0.00,0,WeatherCatV1.11B39,2013-01-17 10:50:00,
2013-01-17 03:55:00,37.6,15.5,30.22,NNW,328,1.0,2.0,40,0.00,,,0.00,0,WeatherCatV1.11B39,2013-01-17 10:55:00,
2013-01-17 04:00:00,37.2,15.7,30.22,NNW,328,0.0,1.0,41,0.00,,,0.00,0,WeatherCatV1.11B39,2013-01-17 11:00:00,
2013-01-17 04:05:00,37.5,14.8,30.22,WSW,251,3.0,5.0,39,0.00,,,0.00,0,WeatherCatV1.11B39,2013-01-17 11:05:00,
2013-01-17 04:10:00,37.9,15.2,30.22,WSW,251,1.0,3.0,39,0.00,,,0.00,0,WeatherCatV1.11B39,2013-01-17 11:10:00,
2013-01-17 04:15:00,37.5,14.8,30.22,WNW,296,2.0,2.0,39,0.00,,,0.00,0,WeatherCatV1.11B39,2013-01-17 11:15:00,
2013-01-17 04:20:00,38.0,14.7,30.21,NW,316,6.0,7.0,38,0.00,,,0.00,0,WeatherCatV1.11B39,2013-01-17 11:20:00,
2013-01-17 04:25:00,39.3,14.6,30.21,NW,319,0.0,0.0,36,0.00,,,0.00,0,WeatherCatV1.11B39,2013-01-17 11:25:00,
2013-01-17 04:30:00,39.6,14.2,30.21,WNW,301,2.0,6.0,35,0.00,,,0.00,0,WeatherCatV1.11B39,2013-01-17 11:30:00,
2013-01-17 04:35:00,39.5,14.1,30.21,WNW,302,0.0,1.0,35,0.00,,,0.00,0,WeatherCatV1.11B39,2013-01-17 11:35:00,
2013-01-17 04:40:00,39.2,14.5,30.21,WNW,290,5.0,6.0,36,0.00,,,0.00,0,WeatherCatV1.11B39,2013-01-17 11:40:00,
2013-01-17 04:45:00,39.5,14.8,30.21,NW,317,1.0,2.0,36,0.00,,,0.00,0,WeatherCatV1.11B39,2013-01-17 11:45:00,
2013-01-17 04:50:00,39.6,14.2,30.21,WSW,257,3.0,5.0,35,0.00,,,0.00,0,WeatherCatV1.11B39,2013-01-17 11:50:00,
2013-01-17 04:55:00,39.8,13.7,30.21,WSW,248,1.0,6.0,34,0.00,,,0.00,0,WeatherCatV1.11B39,2013-01-17 11:55:00,
2013-01-17 05:00:00,39.8,13.7,30.21,NW,305,6.0,7.0,34,0.00,,,0.00,0,WeatherCatV1.11B39,2013-01-17 12:00:00,
2013-01-17 05:05:00,40.0,13.9,30.21,WSW,247,1.0,7.0,34,0.00,,,0.00,0,WeatherCatV1.11B39,2013-01-17 12:05:00,
2013-01-17 05:10:00,40.1,14.0,30.21,NW,320,4.0,6.0,34,0.00,,,0.00,0,WeatherCatV1.11B39,2013-01-17 12:10:00,
2013-01-17 05:15:00,40.9,14.7,30.21,NNW,343,0.0,5.0,34,0.00,,,0.00,0,WeatherCatV1.11B39,2013-01-17 12:15:00,
2013-01-17 05:20:00,41.5,14.6,30.21,SSE,168,2.0,2.0,33,0.00,,,0.00,0,WeatherCatV1.11B39,2013-01-17 12:20:00,
2013-01-17 05:25:00,41.7,14.0,30.21,SW,222,1.0,6.0,32,0.00,,,0.00,0,WeatherCatV1.11B39,2013-01-17 12:25:00,
2013-01-17 05:30:00,41.8,14.8,30.21,WNW,296,5.0,7.0,33,0.00,,,0.00,0,WeatherCatV1.11B39,2013-01-17 12:30:00,
2013-01-17 05:35:00,41.8,14.1,30.21,WNW,297,0.0,10.0,32,0.00,,,0.00,0,WeatherCatV1.11B39,2013-01-17 12:35:00,
2013-01-17 05:40:00,41.8,14.1,30.21,WNW,302,5.0,6.0,32,0.00,,,0.00,0,WeatherCatV1.11B39,2013-01-17 12:40:00,
2013-01-17 05:45:00,41.8,14.1,30.20,West,261,6.0,6.0,32,0.00,,,0.00,0,WeatherCatV1.11B39,2013-01-17 12:45:00,
2013-01-17 05:50:00,42.0,13.6,30.20,NW,317,2.0,5.0,31,0.00,,,0.00,0,WeatherCatV1.11B39,2013-01-17 12:50:00,
2013-01-17 05:55:00,41.9,13.5,30.21,NW,311,3.0,7.0,31,0.00,,,0.00,0,WeatherCatV1.11B39,2013-01-17 12:55:00,
2013-01-17 06:00:00,42.4,13.9,30.21,ENE,72,1.0,5.0,31,0.00,,,0.00,0,WeatherCatV1.11B39,2013-01-17 13:00:00,
2013-01-17 06:05:00,43.2,13.9,30.21,ESE,108,0.0,6.0,30,0.00,,,0.00,0,WeatherCatV1.11B39,2013-01-17 13:05:00,
2013-01-17 06:10:00,43.7,13.6,30.22,NW,325,2.0,6.0,29,0.00,,,0.00,0,WeatherCatV1.11B39,2013-01-17 13:10:00,
2013-01-17 06:15:00,44.0,13.8,30.22,WNW,283,5.0,7.0,29,0.00,,,0.00,0,WeatherCatV1.11B39,2013-01-17 13:15:00,
2013-01-17 06:20:00,43.6,13.5,30.22,North,353,4.0,4.0,29,0.00,,,0.00,0,WeatherCatV1.11B39,2013-01-17 13:20:00,
2013-01-17 06:25:00,43.3,14.0,30.22,WNW,300,2.0,8.0,30,0.00,,,0.00,0,WeatherCatV1.11B39,2013-01-17 13:25:00,
2013-01-17 06:30:00,43.1,13.8,30.22,SSE,165,2.0,6.0,30,0.00,,,0.00,0,WeatherCatV1.11B39,2013-01-17 13:30:00,
2013-01-17 06:35:00,42.6,14.1,30.22,NNW,328,0.0,2.0,31,0.00,,,0.00,0,WeatherCatV1.11B39,2013-01-17 13:35:00,
2013-01-17 06:40:00,43.2,13.9,30.22,East,99,4.0,8.0,30,0.00,,,0.00,0,WeatherCatV1.11B39,2013-01-17 13:40:00,
2013-01-17 06:45:00,45.6,14.4,30.22,ENE,57,2.0,7.0,28,0.00,,,0.00,0,WeatherCatV1.11B39,2013-01-17 13:45:00,
2013-01-17 06:50:00,47.0,14.8,30.22,NE,40,6.0,11.0,27,0.00,,,0.00,0,WeatherCatV1.11B39,2013-01-17 13:50:00,
2013-01-17 06:55:00,48.2,14.0,30.21,ENE,72,6.0,18.0,25,0.00,,,0.00,0,WeatherCatV1.11B39,2013-01-17 13:55:00,
2013-01-17 07:00:00,50.5,14.1,30.21,ENE,70,16.0,18.0,23,0.00,,,0.00,0,WeatherCatV1.11B39,2013-01-17 14:00:00,
2013-01-17 07:05:00,52.1,13.4,30.21,East,99,13.0,13.0,21,0.00,,,0.00,0,WeatherCatV1.11B39,2013-01-17 14:05:00,
2013-01-17 07:10:00,52.9,12.9,30.20,NNE,32,13.0,16.0,20,0.00,,,0.00,0,WeatherCatV1.11B39,2013-01-17 14:10:00,
2013-01-17 07:15:00,53.0,14.1,30.21,ENE,67,9.0,15.0,21,0.00,,,0.00,0,WeatherCatV1.11B39,2013-01-17 14:15:00,
2013-01-17 07:20:00,52.4,13.6,30.21,East,89,11.0,14.0,21,0.00,,,0.00,0,WeatherCatV1.11B39,2013-01-17 14:20:00,
2013-01-17 07:25:00,52.9,12.9,30.22,ENE,61,7.0,15.0,20,0.00,,,0.00,5,WeatherCatV1.11B39,2013-01-17 14:25:00,
2013-01-17 07:30:00,53.4,13.4,30.22,ENE,65,4.0,16.0,20,0.00,,,0.00,7,WeatherCatV1.11B39,2013-01-17 14:30:00,
2013-01-17 07:35:00,53.6,12.4,30.22,ENE,72,17.0,17.0,19,0.00,,,0.00,9,WeatherCatV1.11B39,2013-01-17 14:35:00,
2013-01-17 07:40:00,53.7,12.4,30.22,East,96,14.0,17.0,19,0.00,,,0.00,12,WeatherCatV1.11B39,2013-01-17 14:40:00,
2013-01-17 07:45:00,53.9,12.6,30.22,ESE,123,4.0,16.0,19,0.00,,,0.00,14,WeatherCatV1.11B39,2013-01-17 14:45:00,
2013-01-17 07:50:00,53.9,12.6,30.22,ENE,66,11.0,13.0,19,0.00,,,0.00,18,WeatherCatV1.11B39,2013-01-17 14:50:00,
2013-01-17 07:55:00,53.9,12.6,30.22,ENE,72,20.0,20.0,19,0.00,,,0.00,39,WeatherCatV1.11B39,2013-01-17 14:55:00,
2013-01-17 08:00:00,54.1,12.8,30.22,SE,129,6.0,20.0,19,0.00,,,0.00,56,WeatherCatV1.11B39,2013-01-17 15:00:00,
2013-01-17 08:05:00,54.3,12.9,30.22,ESE,111,13.0,20.0,19,0.00,,,0.00,70,WeatherCatV1.11B39,2013-01-17 15:05:00,
2013-01-17 08:10:00,54.4,13.0,30.22,East,79,11.0,21.0,19,0.00,,,0.00,91,WeatherCatV1.11B39,2013-01-17 15:10:00,
2013-01-17 08:15:00,54.7,12.0,30.23,East,85,16.0,19.0,18,0.00,,,0.00,109,WeatherCatV1.11B39,2013-01-17 15:15:00,
2013-01-17 08:20:00,55.0,12.3,30.23,ESE,120,9.0,22.0,18,0.00,,,0.00,127,WeatherCatV1.11B39,2013-01-17 15:20:00,
2013-01-17 08:25:00,55.1,12.4,30.23,ESE,107,18.0,18.0,18,0.00,,,0.00,148,WeatherCatV1.11B39,2013-01-17 15:25:00,
2013-01-17 08:30:00,55.4,12.6,30.23,East,87,9.0,18.0,18,0.00,,,0.00,167,WeatherCatV1.11B39,2013-01-17 15:30:00,
2013-01-17 08:35:00,55.7,12.9,30.23,ENE,63,10.0,26.0,18,0.00,,,0.00,185,WeatherCatV1.11B39,2013-01-17 15:35:00,
2013-01-17 08:40:00,55.8,12.9,30.23,SE,124,8.0,23.0,18,0.00,,,0.00,202,WeatherCatV1.11B39,2013-01-17 15:40:00,
2013-01-17 08:45:00,55.9,13.0,30.23,East,101,12.0,21.0,18,0.00,,,0.00,218,WeatherCatV1.11B39,2013-01-17 15:45:00,
2013-01-17 08:50:00,56.0,11.8,30.23,East,96,11.0,16.0,17,0.00,,,0.00,230,WeatherCatV1.11B39,2013-01-17 15:50:00,
2013-01-17 08:55:00,56.1,11.9,30.23,East,82,10.0,24.0,17,0.00,,,0.00,248,WeatherCatV1.11B39,2013-01-17 15:55:00,
2013-01-17 09:00:00,56.2,12.0,30.23,East,94,11.0,23.0,17,0.00,,,0.00,264,WeatherCatV1.11B39,2013-01-17 16:00:00,
2013-01-17 09:05:00,56.3,12.1,30.24,East,91,9.0,20.0,17,0.00,,,0.00,278,WeatherCatV1.11B39,2013-01-17 16:05:00,
2013-01-17 09:10:00,56.5,12.2,30.24,ENE,71,16.0,20.0,17,0.00,,,0.00,295,WeatherCatV1.11B39,2013-01-17 16:10:00,
2013-01-17 09:15:00,56.7,12.4,30.24,East,80,9.0,25.0,17,0.00,,,0.00,309,WeatherCatV1.11B39,2013-01-17 16:15:00,
2013-01-17 09:20:00,56.8,11.1,30.24,East,82,13.0,19.0,16,0.00,,,0.00,323,WeatherCatV1.11B39,2013-01-17 16:20:00,
2013-01-17 09:25:00,57.1,12.7,30.24,SE,132,10.0,20.0,17,0.00,,,0.00,341,WeatherCatV1.11B39,2013-01-17 16:25:00,
2013-01-17 09:30:00,57.2,12.8,30.24,ESE,119,6.0,17.0,17,0.00,,,0.00,353,WeatherCatV1.11B39,2013-01-17 16:30:00,
2013-01-17 09:35:00,57.4,11.6,30.25,ESE,116,5.0,18.0,16,0.00,,,0.00,366,WeatherCatV1.11B39,2013-01-17 16:35:00,
2013-01-17 09:40:00,57.6,11.8,30.25,East,80,13.0,28.0,16,0.00,,,0.00,383,WeatherCatV1.11B39,2013-01-17 16:40:00,
2013-01-17 09:45:00,57.9,12.0,30.25,SE,126,5.0,15.0,16,0.00,,,0.00,396,WeatherCatV1.11B39,2013-01-17 16:45:00,
2013-01-17 09:50:00,58.0,12.1,30.25,ESE,121,10.0,17.0,16,0.00,,,0.00,410,WeatherCatV1.11B39,2013-01-17 16:50:00,
2013-01-17 09:55:00,58.5,12.5,30.25,East,93,7.0,19.0,16,0.00,,,0.00,424,WeatherCatV1.11B39,2013-01-17 16:55:00,
2013-01-17 10:00:00,58.8,12.7,30.25,East,80,11.0,22.0,16,0.00,,,0.00,436,WeatherCatV1.11B39,2013-01-17 17:00:00,
2013-01-17 10:05:00,58.8,11.3,30.25,ESE,118,11.0,22.0,15,0.00,,,0.00,446,WeatherCatV1.11B39,2013-01-17 17:05:00,
2013-01-17 10:10:00,59.0,11.4,30.25,East,95,10.0,18.0,15,0.00,,,0.00,462,WeatherCatV1.11B39,2013-01-17 17:10:00,
2013-01-17 10:15:00,59.3,11.7,30.25,East,86,8.0,19.0,15,0.00,,,0.00,473,WeatherCatV1.11B39,2013-01-17 17:15:00,
2013-01-17 10:20:00,59.4,11.8,30.25,East,95,9.0,29.0,15,0.00,,,0.00,487,WeatherCatV1.11B39,2013-01-17 17:20:00,
2013-01-17 10:25:00,59.7,12.0,30.25,ESE,115,7.0,16.0,15,0.00,,,0.00,497,WeatherCatV1.11B39,2013-01-17 17:25:00,
2013-01-17 10:30:00,59.9,12.2,30.25,NE,40,12.0,21.0,15,0.00,,,0.00,506,WeatherCatV1.11B39,2013-01-17 17:30:00,
2013-01-17 10:35:00,60.1,12.3,30.25,East,95,8.0,21.0,15,0.00,,,0.00,519,WeatherCatV1.11B39,2013-01-17 17:35:00,
2013-01-17 10:40:00,60.0,12.2,30.25,East,87,8.0,20.0,15,0.00,,,0.00,529,WeatherCatV1.11B39,2013-01-17 17:40:00,
2013-01-17 10:45:00,60.1,12.3,30.24,ESE,108,13.0,21.0,15,0.00,,,0.00,536,WeatherCatV1.11B39,2013-01-17 17:45:00,
2013-01-17 10:50:00,60.6,12.7,30.24,ESE,114,12.0,24.0,15,0.00,,,0.00,548,WeatherCatV1.11B39,2013-01-17 17:50:00,
2013-01-17 10:55:00,60.7,11.2,30.24,ENE,62,11.0,15.0,14,0.00,,,0.00,555,WeatherCatV1.11B39,2013-01-17 17:55:00,
2013-01-17 11:00:00,60.9,11.4,30.24,ENE,67,19.0,21.0,14,0.00,,,0.00,564,WeatherCatV1.11B39,2013-01-17 18:00:00,
2013-01-17 11:05:00,60.9,11.4,30.24,SE,142,7.0,17.0,14,0.00,,,0.00,573,WeatherCatV1.11B39,2013-01-17 18:05:00,
2013-01-17 11:10:00,61.1,11.6,30.24,ESE,103,15.0,16.0,14,0.00,,,0.00,582,WeatherCatV1.11B39,2013-01-17 18:10:00,
2013-01-17 11:15:00,61.6,12.0,30.24,East,82,6.0,19.0,14,0.00,,,0.00,587,WeatherCatV1.11B39,2013-01-17 18:15:00,
2013-01-17 11:20:00,62.2,12.4,30.23,ENE,78,14.0,16.0,14,0.00,,,0.00,596,WeatherCatV1.11B39,2013-01-17 18:20:00,
2013-01-17 11:25:00,62.4,12.6,30.22,East,86,8.0,19.0,14,0.00,,,0.00,598,WeatherCatV1.11B39,2013-01-17 18:25:00,
2013-01-17 11:30:00,62.8,12.9,30.23,East,89,13.0,19.0,14,0.00,,,0.00,606,WeatherCatV1.11B39,2013-01-17 18:30:00,
2013-01-17 11:35:00,62.9,13.0,30.22,East,89,11.0,19.0,14,0.00,,,0.00,613,WeatherCatV1.11B39,2013-01-17 18:35:00,
2013-01-17 11:40:00,63.1,13.1,30.22,ESE,103,13.0,17.0,14,0.00,,,0.00,619,WeatherCatV1.11B39,2013-01-17 18:40:00,
2013-01-17 11:45:00,63.3,11.6,30.21,ESE,104,7.0,22.0,13,0.00,,,0.00,622,WeatherCatV1.11B39,2013-01-17 18:45:00,
2013-01-17 11:50:00,63.4,11.7,30.21,ESE,113,13.0,17.0,13,0.00,,,0.00,626,WeatherCatV1.11B39,2013-01-17 18:50:00,
2013-01-17 11:55:00,63.8,12.0,30.20,ESE,113,8.0,18.0,13,0.00,,,0.00,631,WeatherCatV1.11B39,2013-01-17 18:55:00,
2013-01-17 12:00:00,64.3,12.4,30.20,ESE,120,15.0,17.0,13,0.00,,,0.00,633,WeatherCatV1.11B39,2013-01-17 19:00:00,
2013-01-17 12:05:00,64.3,12.4,30.20,East,83,15.0,18.0,13,0.00,,,0.00,638,WeatherCatV1.11B39,2013-01-17 19:05:00,
2013-01-17 12:10:00,64.6,12.7,30.19,ENE,78,16.0,23.0,13,0.00,,,0.00,640,WeatherCatV1.11B39,2013-01-17 19:10:00,
2013-01-17 12:15:00,64.9,12.9,30.19,ESE,112,10.0,18.0,13,0.00,,,0.00,642,WeatherCatV1.11B39,2013-01-17 19:15:00,
2013-01-17 12:20:00,65.2,13.1,30.18,East,84,18.0,19.0,13,0.00,,,0.00,643,WeatherCatV1.11B39,2013-01-17 19:20:00,
2013-01-17 12:25:00,65.3,13.2,30.18,ENE,57,15.0,18.0,13,0.00,,,0.00,645,WeatherCatV1.11B39,2013-01-17 19:25:00,
2013-01-17 12:30:00,65.5,13.4,30.17,ENE,75,8.0,18.0,13,0.00,,,0.00,645,WeatherCatV1.11B39,2013-01-17 19:30:00,
2013-01-17 12:35:00,65.6,13.4,30.17,East,98,17.0,17.0,13,0.00,,,0.00,643,WeatherCatV1.11B39,2013-01-17 19:35:00,
2013-01-17 12:40:00,65.9,13.7,30.17,ESE,108,13.0,22.0,13,0.00,,,0.00,647,WeatherCatV1.11B39,2013-01-17 19:40:00,
2013-01-17 12:45:00,66.0,13.8,30.16,East,88,15.0,20.0,13,0.00,,,0.00,645,WeatherCatV1.11B39,2013-01-17 19:45:00,
2013-01-17 12:50:00,65.7,13.5,30.16,East,99,16.0,17.0,13,0.00,,,0.00,645,WeatherCatV1.11B39,2013-01-17 19:50:00,
2013-01-17 12:55:00,66.3,14.0,30.15,ESE,106,8.0,26.0,13,0.00,,,0.00,643,WeatherCatV1.11B39,2013-01-17 19:55:00,
2013-01-17 13:01:00,66.2,13.9,30.15,ENE,68,14.0,16.0,13,0.00,,,0.00,642,WeatherCatV1.11B39,2013-01-17 20:01:00,
2013-01-17 13:06:00,66.6,14.2,30.15,ESE,109,13.0,21.0,13,0.00,,,0.00,640,WeatherCatV1.11B39,2013-01-17 20:06:00,
2013-01-17 13:11:00,66.6,14.2,30.14,East,85,10.0,25.0,13,0.00,,,0.00,636,WeatherCatV1.11B39,2013-01-17 20:11:00,
2013-01-17 13:16:00,66.6,14.2,30.14,NE,47,8.0,23.0,13,0.00,,,0.00,633,WeatherCatV1.11B39,2013-01-17 20:16:00,
2013-01-17 13:21:00,66.5,14.2,30.15,East,80,7.0,16.0,13,0.00,,,0.00,629,WeatherCatV1.11B39,2013-01-17 20:21:00,
2013-01-17 13:26:00,66.4,14.1,30.14,East,80,22.0,22.0,13,0.00,,,0.00,624,WeatherCatV1.11B39,2013-01-17 20:26:00,
2013-01-17 13:31:00,66.3,14.0,30.14,East,84,18.0,18.0,13,0.00,,,0.00,621,WeatherCatV1.11B39,2013-01-17 20:31:00,
2013-01-17 13:36:00,66.2,13.9,30.14,ENE,72,19.0,19.0,13,0.00,,,0.00,613,WeatherCatV1.11B39,2013-01-17 20:36:00,
2013-01-17 13:41:00,66.0,13.8,30.14,ENE,75,19.0,23.0,13,0.00,,,0.00,610,WeatherCatV1.11B39,2013-01-17 20:41:00,
2013-01-17 13:46:00,66.2,13.9,30.13,East,86,11.0,14.0,13,0.00,,,0.00,605,WeatherCatV1.11B39,2013-01-17 20:46:00,
2013-01-17 13:51:00,66.3,14.0,30.13,East,97,5.0,17.0,13,0.00,,,0.00,598,WeatherCatV1.11B39,2013-01-17 20:51:00,
2013-01-17 13:56:00,66.3,14.0,30.13,East,91,13.0,15.0,13,0.00,,,0.00,591,WeatherCatV1.11B39,2013-01-17 20:56:00,
2013-01-17 14:01:00,66.7,14.3,30.14,NE,47,13.0,18.0,13,0.00,,,0.00,584,WeatherCatV1.11B39,2013-01-17 21:01:00,
2013-01-17 14:06:00,66.7,14.3,30.13,ENE,77,7.0,20.0,13,0.00,,,0.00,577,WeatherCatV1.11B39,2013-01-17 21:06:00,
2013-01-17 14:11:00,66.6,14.2,30.13,ENE,75,7.0,19.0,13,0.00,,,0.00,568,WeatherCatV1.11B39,2013-01-17 21:11:00,
2013-01-17 14:16:00,66.3,14.0,30.13,East,80,11.0,12.0,13,0.00,,,0.00,559,WeatherCatV1.11B39,2013-01-17 21:16:00,
2013-01-17 14:21:00,66.8,14.4,30.13,ESE,118,7.0,17.0,13,0.00,,,0.00,548,WeatherCatV1.11B39,2013-01-17 21:21:00,
2013-01-17 14:26:00,67.0,14.5,30.13,ENE,76,10.0,18.0,13,0.00,,,0.00,540,WeatherCatV1.11B39,2013-01-17 21:26:00,
2013-01-17 14:31:00,67.1,14.6,30.12,East,86,14.0,19.0,13,0.00,,,0.00,533,WeatherCatV1.11B39,2013-01-17 21:31:00,
2013-01-17 14:36:00,67.1,14.6,30.12,East,86,6.0,18.0,13,0.00,,,0.00,520,WeatherCatV1.11B39,2013-01-17 21:36:00,
2013-01-17 14:41:00,66.8,14.4,30.12,ESE,103,5.0,19.0,13,0.00,,,0.00,512,WeatherCatV1.11B39,2013-01-17 21:41:00,
2013-01-17 14:46:00,66.9,14.5,30.12,ENE,71,10.0,18.0,13,0.00,,,0.00,503,WeatherCatV1.11B39,2013-01-17 21:46:00,
2013-01-17 14:51:00,66.8,14.4,30.12,ENE,57,16.0,18.0,13,0.00,,,0.00,489,WeatherCatV1.11B39,2013-01-17 21:51:00,
2013-01-17 14:56:00,66.9,14.5,30.12,East,97,9.0,16.0,13,0.00,,,0.00,478,WeatherCatV1.11B39,2013-01-17 21:56:00,
2013-01-17 15:01:00,67.1,14.6,30.12,East,97,11.0,17.0,13,0.00,,,0.00,468,WeatherCatV1.11B39,2013-01-17 22:01:00,
2013-01-17 15:06:00,67.2,14.7,30.12,East,99,8.0,14.0,13,0.00,,,0.00,454,WeatherCatV1.11B39,2013-01-17 22:06:00,
2013-01-17 15:11:00,67.3,14.8,30.12,East,99,8.0,17.0,13,0.00,,,0.00,441,WeatherCatV1.11B39,2013-01-17 22:11:00,
2013-01-17 15:16:00,67.2,14.7,30.11,East,93,7.0,21.0,13,0.00,,,0.00,431,WeatherCatV1.11B39,2013-01-17 22:16:00,
2013-01-17 15:21:00,67.4,14.9,30.12,ENE,67,14.0,17.0,13,0.00,,,0.00,415,WeatherCatV1.11B39,2013-01-17 22:21:00,
2013-01-17 15:26:00,67.0,14.5,30.11,ESE,115,6.0,13.0,13,0.00,,,0.00,401,WeatherCatV1.11B39,2013-01-17 22:26:00,
2013-01-17 15:31:00,66.9,14.5,30.12,ESE,110,12.0,14.0,13,0.00,,,0.00,390,WeatherCatV1.11B39,2013-01-17 22:31:00,
2013-01-17 15:36:00,66.8,14.4,30.12,ESE,122,10.0,23.0,13,0.00,,,0.00,373,WeatherCatV1.11B39,2013-01-17 22:36:00,
2013-01-17 15:41:00,66.6,15.9,30.12,ENE,74,9.0,17.0,14,0.00,,,0.00,362,WeatherCatV1.11B39,2013-01-17 22:41:00,
2013-01-17 15:46:00,66.7,16.0,30.12,East,97,11.0,19.0,14,0.00,,,0.00,346,WeatherCatV1.11B39,2013-01-17 22:46:00,
2013-01-17 15:51:00,66.5,15.8,30.12,ENE,78,24.0,24.0,14,0.00,,,0.00,330,WeatherCatV1.11B39,2013-01-17 22:51:00,
2013-01-17 15:56:00,66.5,15.8,30.12,ESE,103,8.0,18.0,14,0.00,,,0.00,315,WeatherCatV1.11B39,2013-01-17 22:56:00,
2013-01-17 16:01:00,66.5,15.8,30.12,NE,56,11.0,19.0,14,0.00,,,0.00,301,WeatherCatV1.11B39,2013-01-17 23:01:00,
2013-01-17 16:06:00,66.5,15.8,30.12,ENE,75,18.0,18.0,14,0.00,,,0.00,285,WeatherCatV1.11B39,2013-01-17 23:06:00,
2013-01-17 16:11:00,66.3,15.7,30.12,ESE,103,7.0,14.0,14,0.00,,,0.00,269,WeatherCatV1.11B39,2013-01-17 23:11:00,
2013-01-17 16:16:00,66.2,15.6,30.12,East,93,13.0,18.0,14,0.00,,,0.00,253,WeatherCatV1.11B39,2013-01-17 23:16:00,
2013-01-17 16:21:00,66.1,15.5,30.12,ESE,116,16.0,18.0,14,0.00,,,0.00,232,WeatherCatV1.11B39,2013-01-17 23:21:00,
2013-01-17 16:26:00,65.9,15.4,30.13,SE,134,6.0,13.0,14,0.00,,,0.00,213,WeatherCatV1.11B39,2013-01-17 23:26:00,
2013-01-17 16:31:00,65.8,15.3,30.13,East,101,17.0,17.0,14,0.00,,,0.00,193,WeatherCatV1.11B39,2013-01-17 23:31:00,
2013-01-17 16:36:00,65.6,15.1,30.13,ENE,64,4.0,14.0,14,0.00,,,0.00,172,WeatherCatV1.11B39,2013-01-17 23:36:00,
2013-01-17 16:41:00,65.6,15.1,30.13,East,86,8.0,17.0,14,0.00,,,0.00,104,WeatherCatV1.11B39,2013-01-17 23:41:00,
2013-01-17 16:46:00,65.3,14.9,30.13,SE,126,7.0,13.0,14,0.00,,,0.00,63,WeatherCatV1.11B39,2013-01-17 23:46:00,
2013-01-17 16:51:00,65.2,14.8,30.13,ENE,73,8.0,19.0,14,0.00,,,0.00,51,WeatherCatV1.11B39,2013-01-17 23:51:00,
2013-01-17 16:56:00,65.1,16.3,30.13,East,88,8.0,25.0,15,0.00,,,0.00,51,WeatherCatV1.11B39,2013-01-17 23:56:00,
2013-01-17 17:01:00,64.9,16.2,30.13,ENE,77,8.0,18.0,15,0.00,,,0.00,33,WeatherCatV1.11B39,2013-01-18 00:01:00,
2013-01-17 17:06:00,64.8,16.1,30.14,ENE,73,13.0,21.0,15,0.00,,,0.00,28,WeatherCatV1.11B39,2013-01-18 00:06:00,
2013-01-17 17:11:00,64.6,15.9,30.13,ENE,68,13.0,17.0,15,0.00,,,0.00,28,WeatherCatV1.11B39,2013-01-18 00:11:00,
2013-01-17 17:16:00,64.3,15.7,30.14,ENE,59,8.0,18.0,15,0.00,,,0.00,28,WeatherCatV1.11B39,2013-01-18 00:16:00,
2013-01-17 17:21:00,64.2,15.6,30.14,East,91,9.0,16.0,15,0.00,,,0.00,18,WeatherCatV1.11B39,2013-01-18 00:21:00,
2013-01-17 17:26:00,64.0,16.9,30.14,NE,54,12.0,14.0,16,0.00,,,0.00,14,WeatherCatV1.11B39,2013-01-18 00:26:00,
2013-01-17 17:31:00,63.8,16.8,30.14,ENE,74,13.0,18.0,16,0.00,,,0.00,11,WeatherCatV1.11B39,2013-01-18 00:31:00,
2013-01-17 17:36:00,63.6,16.6,30.14,NE,53,8.0,14.0,16,0.00,,,0.00,9,WeatherCatV1.11B39,2013-01-18 00:36:00,
2013-01-17 17:41:00,63.4,16.4,30.15,NE,44,8.0,16.0,16,0.00,,,0.00,5,WeatherCatV1.11B39,2013-01-18 00:41:00,
2013-01-17 17:46:00,63.2,16.3,30.15,NE,45,4.0,14.0,16,0.00,,,0.00,0,WeatherCatV1.11B39,2013-01-18 00:46:00,
2013-01-17 17:51:00,62.9,16.0,30.14,ENE,57,8.0,12.0,16,0.00,,,0.00,0,WeatherCatV1.11B39,2013-01-18 00:51:00,
2013-01-17 17:56:00,62.6,15.8,30.15,ENE,65,4.0,15.0,16,0.00,,,0.00,0,WeatherCatV1.11B39,2013-01-18 00:56:00,
2013-01-17 18:01:00,62.5,15.7,30.15,ENE,60,12.0,15.0,16,0.00,,,0.00,0,WeatherCatV1.11B39,2013-01-18 01:01:00,
2013-01-17 18:06:00,62.3,15.6,30.15,ENE,69,11.0,16.0,16,0.00,,,0.00,0,WeatherCatV1.11B39,2013-01-18 01:06:00,
2013-01-17 18:11:00,62.3,15.6,30.15,NE,44,13.0,14.0,16,0.00,,,0.00,0,WeatherCatV1.11B39,2013-01-18 01:11:00,
2013-01-17 18:16:00,62.3,15.6,30.15,NE,45,14.0,14.0,16,0.00,,,0.00,0,WeatherCatV1.11B39,2013-01-18 01:16:00,
2013-01-17 18:21:00,62.3,16.9,30.15,ENE,68,6.0,9.0,17,0.00,,,0.00,0,WeatherCatV1.11B39,2013-01-18 01:21:00,
2013-01-17 18:26:00,62.1,16.8,30.14,East,80,8.0,10.0,17,0.00,,,0.00,0,WeatherCatV1.11B39,2013-01-18 01:26:00,
2013-01-17 18:31:00,62.0,16.7,30.14,ESE,111,8.0,10.0,17,0.00,,,0.00,0,WeatherCatV1.11B39,2013-01-18 01:31:00,
2013-01-17 18:36:00,61.8,16.5,30.15,East,84,7.0,13.0,17,0.00,,,0.00,0,WeatherCatV1.11B39,2013-01-18 01:36:00,
2013-01-17 18:41:00,61.9,16.6,30.15,ENE,66,7.0,11.0,17,0.00,,,0.00,0,WeatherCatV1.11B39,2013-01-18 01:41:00,
2013-01-17 18:46:00,61.8,16.5,30.15,ESE,112,4.0,11.0,17,0.00,,,0.00,0,WeatherCatV1.11B39,2013-01-18 01:46:00,
2013-01-17 18:51:00,61.7,16.5,30.15,East,79,9.0,13.0,17,0.00,,,0.00,0,WeatherCatV1.11B39,2013-01-18 01:51:00,
2013-01-17 18:56:00,61.8,16.5,30.15,East,89,5.0,13.0,17,0.00,,,0.00,0,WeatherCatV1.11B39,2013-01-18 01:56:00,
2013-01-17 19:01:00,61.9,16.6,30.15,ENE,74,11.0,16.0,17,0.00,,,0.00,0,WeatherCatV1.11B39,2013-01-18 02:01:00,
2013-01-17 19:06:00,61.8,16.5,30.15,NE,49,12.0,12.0,17,0.00,,,0.00,0,WeatherCatV1.11B39,2013-01-18 02:06:00,
2013-01-17 19:11:00,61.8,16.5,30.15,ENE,78,2.0,10.0,17,0.00,,,0.00,0,WeatherCatV1.11B39,2013-01-18 02:11:00,
2013-01-17 19:16:00,61.9,16.6,30.15,ENE,66,7.0,18.0,17,0.00,,,0.00,0,WeatherCatV1.11B39,2013-01-18 02:16:00,
2013-01-17 19:21:00,62.0,16.7,30.15,East,80,6.0,11.0,17,0.00,,,0.00,0,WeatherCatV1.11B39,2013-01-18 02:21:00,
2013-01-17 19:26:00,61.9,16.6,30.15,ENE,74,9.0,14.0,17,0.00,,,0.00,0,WeatherCatV1.11B39,2013-01-18 02:26:00,
2013-01-17 19:31:00,61.9,16.6,30.15,East,79,10.0,13.0,17,0.00,,,0.00,0,WeatherCatV1.11B39,2013-01-18 02:31:00,
2013-01-17 19:36:00,61.9,16.6,30.16,ENE,68,7.0,17.0,17,0.00,,,0.00,0,WeatherCatV1.11B39,2013-01-18 02:36:00,
2013-01-17 19:41:00,61.8,16.5,30.15,ENE,70,15.0,15.0,17,0.00,,,0.00,0,WeatherCatV1.11B39,2013-01-18 02:41:00,
2013-01-17 19:46:00,61.7,16.5,30.15,ENE,67,10.0,13.0,17,0.00,,,0.00,0,WeatherCatV1.11B39,2013-01-18 02:46:00,
2013-01-17 19:51:00,61.7,16.5,30.15,NE,44,8.0,14.0,17,0.00,,,0.00,0,WeatherCatV1.11B39,2013-01-18 02:51:00,
2013-01-17 19:56:00,61.6,16.4,30.15,East,82,8.0,9.0,17,0.00,,,0.00,0,WeatherCatV1.11B39,2013-01-18 02:56:00,
2013-01-17 20:01:00,61.6,16.4,30.15,ENE,70,9.0,14.0,17,0.00,,,0.00,0,WeatherCatV1.11B39,2013-01-18 03:01:00,
2013-01-17 20:06:00,61.7,16.5,30.15,East,82,7.0,19.0,17,0.00,,,0.00,0,WeatherCatV1.11B39,2013-01-18 03:06:00,
2013-01-17 20:11:00,61.7,16.5,30.15,East,82,7.0,14.0,17,0.00,,,0.00,0,WeatherCatV1.11B39,2013-01-18 03:11:00,
2013-01-17 20:16:00,61.7,16.5,30.15,ENE,78,8.0,9.0,17,0.00,,,0.00,0,WeatherCatV1.11B39,2013-01-18 03:16:00,
2013-01-17 20:21:00,61.6,16.4,30.15,East,84,7.0,11.0,17,0.00,,,0.00,0,WeatherCatV1.11B39,2013-01-18 03:21:00,
2013-01-17 20:26:00,61.6,16.4,30.15,ENE,76,7.0,16.0,17,0.00,,,0.00,0,WeatherCatV1.11B39,2013-01-18 03:26:00,
2013-01-17 20:31:00,61.9,16.6,30.15,ENE,78,8.0,14.0,17,0.00,,,0.00,0,WeatherCatV1.11B39,2013-01-18 03:31:00,
2013-01-17 20:36:00,61.8,16.5,30.16,ENE,66,9.0,14.0,17,0.00,,,0.00,0,WeatherCatV1.11B39,2013-01-18 03:36:00,
2013-01-17 20:41:00,61.8,16.5,30.16,East,100,4.0,13.0,17,0.00,,,0.00,0,WeatherCatV1.11B39,2013-01-18 03:41:00,
2013-01-17 20:45:00,61.7,16.5,30.16,ENE,77,8.0,17.0,17,0.00,,,0.00,0,WeatherCatV1.11B39,2013-01-18 03:45:00,
2013-01-17 20:50:00,61.6,16.4,30.16,East,89,9.0,16.0,17,0.00,,,0.00,0,WeatherCatV1.11B39,2013-01-18 03:50:00,
2013-01-17 20:55:00,61.5,16.3,30.16,NE,55,8.0,14.0,17,0.00,,,0.00,0,WeatherCatV1.11B39,2013-01-18 03:55:00,
2013-01-17 21:00:00,61.4,17.5,30.16,East,97,4.0,14.0,18,0.00,,,0.00,0,WeatherCatV1.11B39,2013-01-18 04:00:00,
2013-01-17 21:05:00,61.4,16.2,30.16,NE,55,8.0,11.0,17,0.00,,,0.00,0,WeatherCatV1.11B39,2013-01-18 04:05:00,
2013-01-17 21:10:00,61.4,17.5,30.16,East,90,3.0,10.0,18,0.00,,,0.00,0,WeatherCatV1.11B39,2013-01-18 04:10:00,
2013-01-17 21:15:00,61.4,17.5,30.16,East,92,5.0,19.0,18,0.00,,,0.00,0,WeatherCatV1.11B39,2013-01-18 04:15:00,
2013-01-17 21:20:00,61.4,17.5,30.16,ENE,74,5.0,12.0,18,0.00,,,0.00,0,WeatherCatV1.11B39,2013-01-18 04:20:00,
2013-01-17 21:25:00,61.4,16.2,30.16,East,84,8.0,14.0,17,0.00,,,0.00,0,WeatherCatV1.11B39,2013-01-18 04:25:00,
2013-01-17 21:30:00,61.5,16.3,30.16,ENE,76,7.0,10.0,17,0.00,,,0.00,0,WeatherCatV1.11B39,2013-01-18 04:30:00,
2013-01-17 21:35:00,61.4,16.2,30.17,East,79,3.0,14.0,17,0.00,,,0.00,0,WeatherCatV1.11B39,2013-01-18 04:35:00,
2013-01-17 21:40:00,61.4,17.5,30.17,ENE,63,9.0,14.0,18,0.00,,,0.00,0,WeatherCatV1.11B39,2013-01-18 04:40:00,
2013-01-17 21:45:00,61.3,17.5,30.17,ESE,103,14.0,14.0,18,0.00,,,0.00,0,WeatherCatV1.11B39,2013-01-18 04:45:00,
2013-01-17 21:50:00,61.3,17.5,30.17,East,83,10.0,17.0,18,0.00,,,0.00,0,WeatherCatV1.11B39,2013-01-18 04:50:00,
2013-01-17 21:55:00,61.3,17.5,30.17,ENE,63,9.0,13.0,18,0.00,,,0.00,0,WeatherCatV1.11B39,2013-01-18 04:55:00,
2013-01-17 22:00:00,61.3,17.5,30.17,East,100,5.0,15.0,18,0.00,,,0.00,0,WeatherCatV1.11B39,2013-01-18 05:00:00,
2013-01-17 22:01:00,61.2,17.4,30.17,East,85,8.0,13.0,18,0.00,,,0.00,0,WeatherCatV1.11B39,2013-01-18 05:01:00,
2013-01-17 22:06:00,61.1,17.3,30.17,ENE,63,7.0,11.0,18,0.00,,,0.00,0,WeatherCatV1.11B39,2013-01-18 05:06:00,
2013-01-17 22:11:00,60.9,17.1,30.17,NE,53,7.0,10.0,18,0.00,,,0.00,0,WeatherCatV1.11B39,2013-01-18 05:11:00,
2013-01-17 22:16:00,60.8,17.0,30.16,ESE,110,12.0,14.0,18,0.00,,,0.00,0,WeatherCatV1.11B39,2013-01-18 05:16:00,
2013-01-17 22:21:00,60.8,17.0,30.16,ENE,59,8.0,15.0,18,0.00,,,0.00,0,WeatherCatV1.11B39,2013-01-18 05:21:00,
2013-01-17 22:26:00,60.9,17.1,30.16,East,82,9.0,14.0,18,0.00,,,0.00,0,WeatherCatV1.11B39,2013-01-18 05:26:00,
2013-01-17 22:31:00,61.0,17.2,30.16,ENE,63,8.0,15.0,18,0.00,,,0.00,0,WeatherCatV1.11B39,2013-01-18 05:31:00,
2013-01-17 22:36:00,60.9,17.1,30.16,East,84,9.0,14.0,18,0.00,,,0.00,0,WeatherCatV1.11B39,2013-01-18 05:36:00,
2013-01-17 22:41:00,60.8,17.0,30.16,ENE,59,13.0,13.0,18,0.00,,,0.00,0,WeatherCatV1.11B39,2013-01-18 05:41:00,
2013-01-17 22:46:00,60.7,17.0,30.16,East,98,9.0,14.0,18,0.00,,,0.00,0,WeatherCatV1.11B39,2013-01-18 05:46:00,
2013-01-17 22:51:00,60.7,17.0,30.16,East,82,8.0,18.0,18,0.00,,,0.00,0,WeatherCatV1.11B39,2013-01-18 05:51:00,
2013-01-17 22:56:00,60.7,17.0,30.16,East,79,10.0,13.0,18,0.00,,,0.00,0,WeatherCatV1.11B39,2013-01-18 05:56:00,
2013-01-17 23:01:00,60.6,16.9,30.16,East,85,6.0,10.0,18,0.00,,,0.00,0,WeatherCatV1.11B39,2013-01-18 06:01:00,
2013-01-17 23:06:00,60.4,16.7,30.16,ESE,115,10.0,16.0,18,0.00,,,0.00,0,WeatherCatV1.11B39,2013-01-18 06:06:00,
2013-01-17 23:11:00,60.4,16.7,30.16,East,89,6.0,12.0,18,0.00,,,0.00,0,WeatherCatV1.11B39,2013-01-18 06:11:00,
2013-01-17 23:16:00,60.3,16.6,30.16,East,92,8.0,11.0,18,0.00,,,0.00,0,WeatherCatV1.11B39,2013-01-18 06:16:00,
2013-01-17 23:21:00,60.3,16.6,30.16,ENE,76,10.0,17.0,18,0.00,,,0.00,0,WeatherCatV1.11B39,2013-01-18 06:21:00,
2013-01-17 23:26:00,60.1,16.5,30.16,ESE,105,2.0,12.0,18,0.00,,,0.00,0,WeatherCatV1.11B39,2013-01-18 06:26:00,
2013-01-17 23:31:00,60.0,16.4,30.16,East,93,7.0,15.0,18,0.00,,,0.00,0,WeatherCatV1.11B39,2013-01-18 06:31:00,
2013-01-17 23:36:00,60.2,16.5,30.16,East,87,10.0,15.0,18,0.00,,,0.00,0,WeatherCatV1.11B39,2013-01-18 06:36:00,
2013-01-17 23:41:00,60.1,16.5,30.16,East,95,7.0,16.0,18,0.00,,,0.00,0,WeatherCatV1.11B39,2013-01-18 06:41:00,
2013-01-17 23:46:00,60.1,16.5,30.15,East,86,8.0,14.0,18,0.00,,,0.00,0,WeatherCatV1.11B39,2013-01-18 06:46:00,
2013-01-17 23:51:00,60.1,16.5,30.15,ENE,70,9.0,14.0,18,0.00,,,0.00,0,WeatherCatV1.11B39,2013-01-18 06:51:00,
2013-01-17 23:56:00,60.1,16.5,30.15,East,89,7.0,11.0,18,0.00,,,0.00,0,WeatherCatV1.11B39,2013-01-18 06:56:00,